GFSCGP_prec_cthk_057.txt.gz
RH
19 23 19 18 22 27 33 40 43 39 50 56 57 58 65 68 68 54 61 57 52 42 37 43 45 47 46 41 38 33 32 31 31 31 28 28 31 34 37 37 39 39 39 39
23 21 20 19 21 25 30 40 41 39 45 49 59 65 60 61 62 60 55 57 44 46 41 45 47 46 45 40 35 31 30 28 29 29 27 25 27 29 30 34 35 34 35 33
22 18 22 22 23 26 25 31 31 37 38 42 57 67 65 64 67 66 59 45 49 52 44 40 38 36 37 35 32 30 28 26 27 27 27 27 27 28 30 31 29 30 30 29
26 22 27 23 23 24 27 23 28 36 42 51 42 63 68 65 60 63 73 59 55 59 47 42 36 33 28 31 31 29 27 25 25 25 25 25 23 26 27 28 27 26 27 27
24 26 26 29 21 21 20 21 26 34 45 50 46 48 56 60 51 56 54 58 50 56 53 42 40 27 26 26 28 28 27 24 24 23 23 22 23 24 26 27 27 26 26 28
30 31 31 25 25 23 20 24 22 34 43 49 43 49 52 57 47 49 59 61 52 54 52 44 43 37 29 27 28 27 26 23 22 22 22 22 21 22 23 22 24 26 26 27
37 33 32 30 28 30 24 28 30 37 42 45 37 40 43 42 40 42 45 46 53 54 52 44 43 41 32 25 26 26 26 23 21 20 20 20 20 21 19 19 21 24 25 25
35 36 33 33 30 28 26 22 24 28 29 29 33 35 30 32 36 38 47 46 54 50 49 42 40 38 36 27 20 20 20 20 20 18 17 18 19 18 18 17 19 21 24 24
34 34 38 37 35 27 24 23 21 21 20 26 26 26 25 24 32 36 38 46 46 49 44 40 42 37 37 30 21 19 18 17 16 15 14 15 14 15 14 14 16 18 20 24
34 37 35 35 41 27 21 23 23 19 24 24 21 22 18 18 28 30 35 36 42 46 42 41 39 38 35 34 21 21 16 16 14 14 14 12 11 12 13 14 15 17 18 21
54 40 30 37 37 30 28 26 22 19 22 27 29 18 18 19 17 26 26 30 37 44 41 40 39 38 34 34 21 22 18 16 16 15 14 13 12 11 12 15 16 17 19 21
66 49 41 32 28 33 33 25 23 20 19 19 19 18 21 18 17 18 23 25 29 37 41 40 40 36 31 29 20 21 19 17 14 13 14 14 14 13 13 17 18 18 18 19
76 61 49 36 35 34 35 28 24 23 23 20 18 17 17 17 17 18 19 21 21 31 42 39 39 38 39 29 19 20 20 18 14 12 13 13 12 13 16 18 20 19 17 17
88 67 61 52 37 32 34 32 26 24 26 21 16 18 21 20 21 20 20 22 23 23 35 41 41 44 43 41 21 25 27 26 22 18 14 12 11 14 18 19 18 18 19 20
82 64 52 47 41 38 36 33 29 25 22 24 19 19 23 22 23 23 22 22 23 28 31 42 41 42 41 40 30 23 28 29 29 29 28 27 25 23 26 24 22 21 23 21
79 71 60 49 41 40 44 39 29 26 23 22 22 17 24 24 22 22 21 22 22 24 32 38 43 41 38 41 37 24 27 32 31 32 33 36 39 39 36 33 29 29 26 24
84 68 64 52 46 49 49 43 38 30 27 23 23 18 24 25 23 23 22 22 23 26 30 36 42 43 49 50 44 39 31 33 30 32 33 38 40 43 42 41 38 36 33 30
86 70 64 58 57 61 43 45 42 35 27 26 24 23 25 27 28 27 24 23 23 26 28 28 34 36 42 48 46 40 39 35 32 29 32 39 39 37 43 45 42 42 36 34
76 70 68 67 66 55 49 52 48 42 50 45 37 30 30 35 33 37 31 27 27 27 27 27 29 31 34 39 45 48 43 40 36 30 32 37 36 35 39 43 41 39 39 35
64 69 69 67 70 66 73 59 50 46 65 51 43 41 41 36 46 47 37 30 27 28 29 26 25 28 31 35 37 32 30 32 33 34 30 32 35 37 37 38 39 39 37 37
62 65 69 67 68 83 74 64 58 66 77 59 52 53 54 50 52 48 41 35 30 28 26 26 24 26 29 29 35 36 37 39 36 35 33 32 33 33 35 40 42 42 43 41
83 80 70 66 73 80 76 73 75 76 70 65 57 57 56 52 51 47 43 39 35 30 28 24 20 22 24 28 28 28 31 35 35 35 35 34 33 35 34 36 40 43 43 44
91 92 96 88 88 81 78 79 78 68 65 67 62 56 54 52 49 46 43 40 35 33 29 29 27 24 24 24 26 26 24 26 28 26 26 31 32 32 33 33 37 40 43 40
75 78 83 79 75 78 77 76 80 75 68 67 61 54 50 48 49 47 44 40 37 32 34 33 30 27 24 23 22 20 22 22 21 20 18 20 23 25 26 27 28 31 32 36
77 73 77 69 67 71 64 65 72 72 64 62 57 52 49 48 46 45 43 40 36 33 30 28 25 24 29 32 33 30 22 18 16 15 15 14 15 17 18 21 20 23 26 29
72 78 77 68 65 67 58 57 57 62 60 57 56 53 51 50 48 44 43 40 37 33 32 31 27 23 21 29 36 40 39 32 25 21 18 18 18 18 20 20 20 23 26 28

GFSCGP_prec_cthk_060.txt.gz
RH
16 15 13 11 15 20 31 35 39 42 53 59 66 67 65 62 63 66 70 67 58 29 32 39 38 44 43 38 37 36 36 38 39 37 33 33 36 39 38 38 40 40 40 42
24 18 13 15 18 21 30 32 34 37 44 57 67 71 63 66 61 64 69 62 62 43 30 36 37 42 38 36 35 35 34 35 35 35 29 29 33 33 33 35 39 37 36 37
24 21 18 18 20 22 25 29 30 35 48 57 64 75 74 69 61 65 66 60 59 53 42 34 35 36 39 37 34 33 33 34 33 32 30 28 27 28 29 32 33 31 32 35
27 23 26 22 22 21 23 24 31 40 49 57 55 75 70 65 65 62 60 58 57 58 48 40 34 34 36 35 35 33 30 31 30 30 28 27 23 22 24 26 28 29 28 31
25 27 27 29 22 23 20 24 31 43 46 51 56 70 59 62 61 55 50 50 51 53 51 43 38 31 29 32 35 34 30 28 28 28 26 26 24 22 24 25 26 27 26 27
31 29 33 29 29 30 25 25 32 44 46 49 47 58 54 61 50 45 42 44 48 51 54 47 40 39 33 32 33 35 32 27 25 25 24 24 23 24 24 24 24 24 26 25
29 30 31 32 37 37 33 31 35 40 49 47 39 51 44 43 47 44 40 44 50 52 51 50 41 39 41 30 30 31 32 28 24 23 22 21 22 24 22 21 21 22 23 24
34 31 32 32 34 36 32 31 32 36 40 34 31 43 32 35 42 46 40 44 48 49 48 53 47 43 40 35 26 26 26 25 23 22 21 21 21 22 22 19 19 21 22 23
65 35 33 34 34 37 35 33 25 29 26 30 32 32 30 31 35 36 33 41 45 46 45 49 50 45 41 38 31 21 21 22 21 20 19 18 19 20 18 16 18 19 20 22
68 62 32 33 42 40 35 35 34 33 34 32 29 28 25 31 32 29 29 37 41 44 43 47 49 45 43 39 36 22 19 18 18 19 19 18 18 16 15 15 15 16 17 20
74 68 40 45 38 36 41 41 35 31 30 28 29 20 17 22 30 31 32 31 42 42 37 45 47 44 46 43 39 27 20 18 17 18 18 17 15 14 14 14 14 15 17 18
80 73 66 44 37 36 43 42 39 32 28 27 22 14 13 19 20 22 28 31 34 34 30 42 46 45 46 43 35 29 21 21 16 14 16 15 14 15 14 14 14 16 17 19
89 87 73 43 42 41 44 39 37 31 26 25 20 14 17 19 20 20 19 22 29 32 34 40 45 45 42 42 36 24 20 22 19 16 15 16 16 15 14 14 16 19 17 18
88 89 81 73 61 61 50 44 35 33 30 24 19 15 19 18 18 20 17 21 27 29 32 37 42 42 42 43 42 21 16 17 20 18 15 14 14 13 14 15 17 19 19 18
91 91 80 61 58 55 48 46 39 35 28 24 19 18 18 19 20 23 18 20 28 29 33 36 39 41 46 48 45 25 19 17 16 17 15 10 9 11 13 16 18 19 20 18
96 94 82 60 52 52 49 44 40 38 32 26 21 18 19 19 23 24 21 21 23 25 26 30 33 35 44 47 45 34 23 26 26 22 20 21 19 17 18 23 23 20 21 19
98 94 87 66 56 56 53 50 46 38 32 29 23 18 21 25 30 30 26 24 26 28 29 30 30 31 40 46 45 34 27 33 30 29 32 33 34 34 36 37 35 28 27 21
91 95 92 72 61 65 59 53 53 51 47 42 35 29 26 33 35 33 32 31 30 31 33 36 36 36 39 43 46 47 31 38 38 36 35 35 37 41 42 41 40 42 38 32
87 94 93 78 71 62 63 61 64 57 60 51 47 35 38 35 34 40 40 38 35 34 32 31 34 36 38 43 46 58 49 41 37 39 39 41 39 37 38 41 44 44 44 42
81 89 98 77 74 82 84 74 67 63 68 62 57 51 46 39 45 50 46 43 41 39 35 34 32 34 37 35 38 46 48 47 37 38 36 42 42 38 35 38 42 44 43 40
87 94 98 83 75 90 88 80 72 81 84 69 66 59 53 49 53 49 46 44 42 41 38 37 34 34 35 33 35 41 47 45 40 41 38 38 43 39 37 35 35 40 41 42
98 98 98 95 85 97 88 84 91 82 72 70 66 57 58 55 53 50 44 41 41 40 40 39 36 36 35 33 33 35 39 42 38 33 33 35 38 39 41 40 38 39 42 43
97 97 97 98 90 86 87 90 91 85 75 71 67 59 55 52 51 50 47 44 41 40 39 39 36 37 37 34 32 33 36 37 37 38 43 45 44 41 39 40 40 40 37 38
87 88 88 83 81 78 80 84 88 84 77 70 65 61 55 52 48 49 47 45 43 40 39 37 34 30 32 34 33 31 32 32 35 38 37 36 36 35 35 36 37 38 37 37
89 83 84 80 72 70 66 79 84 85 82 74 59 59 58 58 55 50 49 47 44 38 36 35 34 30 25 26 25 25 28 29 29 29 30 28 27 24 26 28 29 29 29 29
80 76 76 76 73 76 70 70 79 77 84 80 68 54 53 56 58 57 54 50 46 41 36 34 31 29 26 25 24 25 27 29 30 29 27 25 23 21 19 19 22 21 19 20

GFSCGP_prec_cthk_063.txt.gz
RH
16 16 13 10 12 16 25 31 40 47 45 46 52 64 69 70 68 73 76 74 62 48 41 47 48 48 45 40 38 36 34 35 39 40 38 37 39 40 40 40 39 39 41 45
22 18 13 12 11 14 21 29 33 44 46 53 57 61 66 68 67 70 74 73 67 50 43 42 44 45 43 39 37 35 32 34 36 37 35 35 35 38 39 39 39 38 36 38
30 23 18 16 14 13 19 24 34 44 51 57 59 69 69 66 70 72 76 71 67 57 40 34 38 40 40 40 34 32 32 32 34 35 36 38 37 35 35 35 36 35 33 35
31 27 28 21 18 16 20 22 33 41 50 50 51 66 66 63 60 64 67 69 66 64 47 38 32 35 34 35 33 32 32 31 33 34 35 36 29 27 29 32 33 32 31 31
28 28 28 29 19 19 18 22 30 42 51 52 56 62 60 58 56 60 60 62 63 62 59 42 34 28 31 35 32 31 32 32 33 34 34 33 28 25 26 29 29 30 29 27
28 31 32 27 27 23 22 24 32 40 51 57 48 58 46 55 48 51 56 57 57 60 61 48 39 34 30 34 35 33 32 31 31 34 34 32 28 25 26 26 26 27 26 26
40 30 33 32 33 36 32 36 40 47 52 48 44 52 32 39 40 45 51 48 51 56 58 56 41 37 31 32 33 33 31 32 31 32 33 32 28 26 27 26 25 24 26 24
59 35 34 37 35 34 36 39 42 45 45 42 38 44 27 30 40 43 44 49 53 57 57 52 45 36 37 32 30 29 30 30 30 29 30 29 29 26 26 26 24 22 24 25
65 52 39 42 41 39 40 41 34 35 34 36 37 38 26 33 40 44 43 47 52 52 53 49 50 40 37 34 29 24 28 29 26 25 27 27 27 25 25 23 22 20 22 24
60 62 43 44 44 37 37 40 43 40 43 41 35 34 27 29 35 39 39 43 42 41 49 50 50 45 34 35 33 29 25 27 25 25 25 25 24 23 23 21 19 19 19 20
44 57 48 48 47 42 41 43 43 42 38 36 36 31 22 23 32 35 34 31 35 37 40 41 48 48 41 38 35 33 28 25 27 25 25 25 23 23 22 18 17 17 16 17
51 58 63 55 47 47 51 46 45 43 40 35 31 23 18 18 26 30 35 30 29 35 42 37 41 51 43 38 36 31 29 25 24 24 23 22 22 22 20 17 15 15 15 16
47 71 65 51 43 53 56 53 49 45 46 37 31 21 18 19 22 30 32 28 28 30 37 36 39 51 45 38 38 32 30 25 24 23 20 20 20 18 16 16 16 17 17 17
50 62 62 63 65 70 67 59 51 54 45 35 26 22 19 18 17 22 26 26 21 28 30 34 34 40 44 36 37 36 29 26 24 22 19 17 16 16 16 16 17 20 19 20
49 61 63 64 61 64 66 62 53 52 46 36 27 21 19 18 19 21 21 20 19 16 23 33 32 34 41 36 39 40 31 25 24 25 21 16 15 16 16 16 17 19 21 20
54 49 64 63 53 58 66 61 59 52 47 42 26 20 20 26 27 27 26 21 19 16 21 28 30 35 40 35 37 40 32 22 22 22 20 17 16 14 13 14 16 18 20 20
55 57 70 69 62 68 66 67 69 62 53 46 27 28 32 33 33 35 34 29 21 22 25 28 30 34 36 37 37 41 29 22 19 17 16 16 15 13 11 15 21 22 21 21
54 65 78 79 76 78 72 79 73 70 58 51 42 39 36 36 38 41 41 37 29 27 32 30 29 30 35 42 47 48 34 30 27 27 28 27 27 28 31 35 36 36 31 28
56 81 86 85 91 76 76 83 81 75 64 58 48 44 43 43 36 44 46 44 41 35 29 29 30 36 40 42 51 47 40 41 37 32 34 36 37 40 41 42 42 44 43 43
82 94 90 98 97 98 89 88 83 78 74 61 56 49 47 44 48 53 53 52 49 44 37 33 33 35 40 41 47 47 40 43 36 39 42 44 50 49 47 45 46 48 48 48
99 97 96 97 98 96 94 90 83 84 82 68 59 53 51 51 54 53 57 56 50 48 44 40 37 38 39 40 44 48 50 46 57 42 40 49 54 51 49 45 42 45 46 48
98 98 98 98 99 99 95 93 93 90 80 68 60 56 53 52 56 57 58 58 55 52 48 46 43 41 38 42 49 49 47 53 55 51 35 48 56 53 47 44 42 41 41 42
97 98 98 98 95 92 86 97 94 93 84 70 64 57 57 56 56 55 55 55 54 53 52 48 48 48 45 41 44 46 48 47 48 52 47 39 50 51 48 45 43 39 39 38
94 92 94 95 92 89 82 96 88 88 86 73 66 60 58 59 56 54 53 52 52 50 47 47 45 46 48 46 45 45 46 47 46 48 47 43 34 35 48 49 47 46 43 41
94 93 94 92 90 82 75 87 93 90 89 80 68 62 56 60 57 58 57 53 50 48 46 43 44 45 46 45 44 42 40 39 39 40 43 42 36 34 41 45 45 43 44 42
79 81 83 88 86 88 82 78 89 94 90 89 75 57 55 56 59 58 59 56 52 49 46 44 42 40 40 42 39 36 35 33 33 34 34 34 33 39 41 41 39 37 37 37

GFSCGP_prec_cthk_069.txt.gz
RH
22 20 15 12 13 12 13 18 22 37 44 49 55 66 71 73 71 73 76 69 54 45 53 55 54 51 45 40 31 26 22 22 24 30 33 36 38 40 39 40 43 46 44 49
26 20 18 16 15 14 13 17 23 33 44 47 53 58 66 68 71 74 75 74 65 52 45 48 51 51 46 42 35 28 25 23 24 29 31 35 36 39 39 39 40 42 44 46
26 23 26 21 17 16 13 13 19 27 42 41 54 63 64 65 68 70 70 71 74 67 61 43 46 47 47 41 37 29 28 26 25 28 31 34 36 38 39 37 38 38 40 40
30 27 27 27 20 17 16 12 15 24 34 45 49 61 63 61 66 68 65 65 67 69 68 48 43 45 44 40 39 33 30 29 27 28 29 32 36 35 35 36 38 37 36 35
30 27 27 29 25 20 16 14 11 17 31 40 45 55 52 55 60 64 59 62 66 67 66 54 33 34 40 43 39 37 35 33 31 30 31 34 37 36 35 34 35 33 32 32
31 32 31 27 30 30 20 22 16 13 20 36 37 44 40 43 41 51 58 59 64 65 63 54 45 34 36 44 43 42 38 34 35 34 32 34 34 34 34 33 33 30 28 28
34 32 32 32 33 35 32 27 32 27 23 26 29 41 34 33 36 47 54 60 62 62 62 55 49 39 30 34 41 41 40 36 34 32 31 33 34 33 32 32 32 28 24 24
38 34 36 37 33 36 38 36 27 31 24 18 26 35 32 31 33 41 49 55 54 57 55 56 49 39 34 29 28 36 37 37 35 32 30 32 32 31 30 30 31 28 24 21
38 36 39 42 41 38 42 41 33 33 31 23 22 25 22 29 30 40 47 53 50 51 53 51 46 38 33 31 28 26 31 33 34 31 31 31 29 28 27 27 29 28 24 23
33 27 34 41 44 43 41 43 51 44 36 35 27 23 21 23 26 38 46 48 48 52 51 55 54 43 36 29 27 27 25 25 26 27 27 29 28 27 27 28 29 28 25 25
27 25 20 33 41 45 48 48 47 45 38 32 37 24 17 19 25 37 42 45 50 51 45 47 49 49 42 34 31 26 27 25 25 24 25 26 26 26 27 27 28 28 27 25
37 33 25 20 36 45 53 52 51 49 47 38 35 25 21 18 23 33 39 43 48 50 49 47 47 51 49 40 33 28 26 27 25 25 26 26 26 26 26 25 25 26 26 25
49 44 29 15 27 39 50 55 54 51 48 46 42 30 24 19 23 32 37 40 43 47 49 49 47 44 50 45 39 32 29 27 26 26 26 26 26 27 25 24 25 25 25 24
54 50 41 29 40 45 51 56 56 55 52 42 42 35 28 23 20 30 37 38 41 42 45 43 43 41 40 43 42 38 31 28 27 26 26 26 24 23 23 22 24 24 23 22
68 59 46 34 31 33 39 45 53 57 56 51 40 36 31 28 26 34 38 42 42 41 42 40 39 39 40 43 42 43 40 35 30 26 24 23 23 23 23 23 22 21 23 21
72 62 58 42 31 34 33 39 43 50 52 55 49 42 35 35 36 28 35 39 42 43 46 42 39 38 36 42 42 41 40 41 33 28 24 23 23 22 21 22 22 21 20 20
77 66 59 44 46 42 32 30 37 44 56 57 57 46 45 42 42 35 31 40 42 41 43 44 43 39 36 36 38 43 38 40 35 31 26 23 20 20 19 20 20 19 19 20
67 70 70 50 46 49 46 44 37 49 62 62 62 56 52 52 46 41 39 36 37 38 40 40 40 39 34 35 38 43 43 36 34 35 29 22 20 18 18 18 16 15 18 19
62 67 62 60 54 51 56 66 64 67 64 64 63 63 58 55 52 49 45 40 37 35 38 38 34 35 31 35 37 39 40 35 37 39 33 23 18 18 16 14 14 15 16 19
67 69 66 58 64 64 82 78 69 73 72 67 64 65 65 59 56 48 49 43 41 39 37 37 33 30 33 35 38 41 40 41 34 31 27 26 23 21 20 18 16 15 15 17
76 73 67 65 69 66 89 85 81 84 80 77 70 68 70 65 58 52 50 47 49 45 42 39 36 32 30 32 39 43 45 42 38 33 16 19 19 17 17 19 21 23 28 36
78 70 73 70 73 73 86 88 92 90 88 86 78 71 68 67 60 53 53 49 49 51 51 48 45 39 36 37 44 47 50 48 34 27 28 28 30 31 33 34 34 33 37 39
96 85 84 70 64 72 86 91 90 94 93 89 86 71 71 69 64 60 56 53 54 54 57 57 54 50 47 48 52 55 56 51 42 39 37 36 36 36 37 36 35 39 42 41
98 98 97 95 85 81 88 89 97 96 97 89 86 76 71 72 69 61 56 54 57 55 56 60 59 61 56 55 56 61 57 52 49 45 45 44 43 42 46 46 46 44 47 46
98 98 98 97 91 88 89 91 97 97 95 90 84 79 76 74 71 65 59 55 58 58 59 60 59 58 56 57 60 64 63 60 59 53 56 55 52 53 47 47 45 48 50 53
98 98 98 98 97 89 88 88 91 95 95 91 88 87 84 79 74 67 60 56 57 57 57 59 58 54 52 54 54 62 62 70 67 61 65 67 71 52 64 61 54 52 49 54

GFSCGP_prec_cthk_072.txt.gz
RH
19 19 16 13 13 12 11 11 13 23 45 49 48 61 67 72 63 54 50 50 46 54 57 58 55 52 45 41 32 26 25 28 30 36 40 41 43 47 47 47 44 46 46 45
21 17 18 18 15 14 12 13 14 21 35 43 47 54 66 71 67 65 65 63 52 47 54 56 54 51 46 44 36 28 24 23 24 32 36 39 41 43 45 46 43 46 45 44
24 21 19 20 19 15 14 12 14 17 28 39 45 53 58 65 68 66 66 70 67 54 48 51 53 51 48 44 37 32 22 20 21 30 33 36 38 40 40 41 42 42 42 44
25 26 26 23 22 18 15 13 12 18 27 35 39 45 54 59 66 66 66 67 66 60 57 46 47 50 47 44 44 36 31 23 21 22 30 33 36 39 39 40 40 41 38 38
24 25 30 26 25 25 18 17 15 12 21 30 50 48 49 59 64 65 64 65 62 64 61 62 43 38 46 48 44 42 35 28 24 22 26 30 33 37 39 39 40 37 37 34
30 29 30 27 29 27 26 19 16 14 13 24 30 38 38 61 60 60 60 65 62 61 65 63 54 42 43 50 48 45 40 29 26 25 25 26 30 36 39 35 36 36 36 33
31 33 35 31 28 28 29 24 24 20 15 12 17 29 34 44 58 54 56 63 62 63 65 65 56 46 35 38 43 44 40 34 28 27 26 25 26 32 36 35 34 35 33 31
34 32 33 31 30 31 30 31 22 26 16 12 11 19 24 34 38 50 50 50 61 60 61 63 59 47 42 32 35 40 37 34 32 30 27 26 27 32 34 33 35 35 31 29
34 28 40 37 34 33 39 34 29 26 30 23 15 13 23 27 29 37 42 41 56 56 57 58 59 54 45 40 31 30 33 34 34 32 30 29 29 30 32 31 30 32 31 30
27 23 30 37 38 35 35 38 42 38 36 32 26 20 17 22 28 30 33 37 50 52 55 55 52 55 46 38 35 30 28 29 32 34 32 30 28 28 28 29 27 30 30 26
29 23 24 25 32 35 38 41 44 41 37 33 32 25 19 23 24 25 30 35 45 49 48 55 54 53 44 37 35 32 30 27 32 33 33 31 29 27 27 27 25 26 27 25
38 29 26 19 40 37 45 45 40 49 45 38 37 29 28 25 19 24 29 33 45 49 50 53 55 59 55 44 39 34 29 28 26 28 27 28 28 27 27 25 25 26 26 25
51 37 36 26 20 25 39 48 48 50 44 46 43 36 33 31 26 24 28 34 44 49 49 51 53 53 54 52 49 38 31 26 24 24 25 25 24 25 24 22 23 24 24 24
54 43 43 31 40 42 41 47 46 48 48 43 44 48 34 32 28 30 33 38 46 44 49 50 51 51 52 54 51 45 40 33 27 23 24 22 19 19 20 21 22 22 23 23
66 64 53 43 39 36 33 33 38 46 50 45 45 48 41 42 37 32 36 39 47 47 49 49 51 53 55 48 50 46 45 42 35 28 24 22 20 21 21 22 22 23 23 22
69 68 61 57 40 34 31 28 28 32 42 48 47 49 41 43 35 32 37 38 46 51 50 51 53 46 44 42 44 49 42 39 38 32 27 24 21 21 21 21 22 23 23 22
75 74 70 57 43 41 34 22 24 28 33 40 46 44 42 44 38 39 36 39 45 49 51 53 50 46 42 39 44 48 48 47 40 33 32 28 24 21 21 21 21 21 21 20
73 78 73 62 54 47 30 54 43 41 33 35 43 50 49 46 53 43 37 35 44 46 48 48 48 46 43 40 39 48 50 49 47 41 38 30 25 22 21 22 21 21 21 20
59 71 73 61 51 37 49 58 56 56 51 53 53 53 49 48 50 49 40 38 39 44 46 48 49 50 45 41 41 46 50 51 49 44 37 30 26 23 23 21 20 20 20 19
66 60 75 66 61 58 70 70 67 67 70 58 54 53 53 53 52 58 48 43 41 42 46 46 46 46 45 44 42 43 39 43 45 43 34 32 32 24 21 20 19 19 18 16
86 89 83 71 72 55 69 70 77 83 73 66 60 59 57 62 58 59 53 49 47 41 41 43 46 45 42 44 41 41 39 38 43 46 41 38 35 29 23 20 18 17 17 16
92 95 85 75 83 67 58 66 82 86 81 74 67 68 66 66 62 61 58 55 54 49 43 39 42 44 40 44 43 43 45 46 51 49 43 42 36 32 28 24 24 23 20 17
96 90 81 71 63 65 61 71 80 88 84 77 77 77 68 65 63 61 59 57 54 52 50 45 43 46 45 49 49 51 47 47 52 55 49 48 41 30 30 25 20 19 18 22
98 98 88 78 71 72 62 70 79 79 86 87 80 86 76 71 69 65 62 63 61 56 49 49 49 49 52 55 53 51 51 55 57 60 55 46 28 28 26 29 31 31 31 32
98 98 98 94 86 81 78 85 83 80 77 96 86 91 87 77 71 68 67 68 65 60 55 52 50 55 55 55 56 54 56 58 61 59 49 40 38 37 39 39 40 38 38 40
98 98 98 97 94 89 87 88 91 84 80 81 90 89 97 84 79 72 70 71 67 63 60 56 57 57 60 63 59 59 61 66 74 61 54 53 49 49 47 47 50 50 52 52

GFSCGP_prec_cthk_075.txt.gz
RH
25 21 17 17 16 12 13 11 11 18 40 45 49 57 55 72 59 63 55 52 52 57 60 59 56 51 44 39 35 31 31 34 36 40 43 49 58 59 61 59 54 47 53 57
21 20 17 18 18 15 14 14 12 14 21 44 50 50 64 59 51 57 52 47 47 54 56 56 56 52 46 41 35 32 29 29 32 36 42 49 52 56 56 54 48 47 47 50
23 18 19 19 18 17 15 13 15 15 21 31 48 54 63 68 76 66 61 53 51 50 52 53 54 52 47 43 37 33 25 24 26 34 37 44 48 55 51 56 49 50 48 50
23 22 22 20 19 19 17 14 14 15 19 32 37 46 48 70 82 66 61 65 60 50 53 50 53 51 46 43 41 37 27 24 22 26 33 39 43 45 50 50 49 50 46 52
21 25 26 26 21 20 21 17 15 13 17 26 35 37 37 49 49 59 63 64 67 62 57 48 42 45 49 47 44 41 32 26 24 22 30 34 37 43 45 47 47 46 39 40
32 26 25 24 27 25 24 23 20 17 14 16 23 36 34 46 54 53 62 64 66 66 61 57 57 46 45 50 47 46 40 29 24 22 23 29 31 40 42 43 44 41 43 37
24 32 32 31 31 29 26 29 25 21 18 14 11 23 40 36 51 54 59 62 64 65 66 61 62 63 46 38 45 43 40 35 26 24 22 25 26 28 38 43 38 41 40 42
35 31 29 33 33 31 29 26 25 28 19 12 10 15 24 38 53 55 60 59 62 67 64 62 64 64 56 42 36 41 38 36 32 24 22 23 24 27 31 38 41 38 41 41
25 33 41 37 35 32 31 31 25 26 22 18 13 11 15 21 39 44 64 62 63 63 66 63 64 65 60 51 38 30 35 36 35 30 25 23 23 25 33 36 33 39 39 41
22 28 37 43 48 42 41 40 32 34 32 26 20 16 14 16 26 37 48 57 55 64 59 64 64 64 64 57 50 37 30 32 33 33 29 25 23 23 27 31 33 34 34 33
24 23 25 38 49 46 39 40 46 38 34 30 27 24 22 18 21 32 33 37 47 51 51 59 62 63 62 63 57 48 36 31 32 35 32 31 27 24 25 28 27 28 31 32
37 28 24 25 25 28 36 39 41 46 43 34 29 26 26 22 23 32 32 42 38 42 47 55 61 61 60 58 51 42 36 30 29 29 32 31 30 27 26 25 25 26 27 28
49 39 34 25 26 28 39 40 46 37 40 40 35 32 39 31 31 34 37 41 44 45 47 54 57 61 58 58 53 42 40 34 29 29 30 31 32 31 28 26 22 22 23 23
53 53 49 37 34 38 35 28 45 48 42 39 41 35 39 41 40 44 51 48 47 44 43 52 58 58 58 60 58 55 50 44 34 30 30 30 28 29 28 27 24 21 21 20
58 61 56 50 47 44 38 43 51 56 54 51 40 42 44 44 42 47 46 45 43 39 45 47 56 60 59 61 59 57 58 52 45 30 27 26 24 25 27 27 25 21 20 20
69 70 69 61 57 47 40 33 33 39 39 47 52 53 47 54 61 58 49 47 44 45 49 53 59 60 60 59 58 60 59 53 47 41 27 23 23 23 22 23 23 21 19 20
73 77 73 69 56 49 48 38 29 25 25 32 44 51 52 57 60 67 64 47 44 43 47 51 58 61 60 57 59 56 57 56 48 42 38 33 26 23 21 19 18 18 18 19
62 76 83 83 66 67 38 37 41 43 31 27 29 44 52 57 62 66 65 49 47 45 46 50 54 56 53 53 54 54 52 54 54 47 43 37 32 27 23 22 20 18 18 18
53 58 84 84 67 56 47 69 65 56 40 49 34 36 45 70 59 51 58 53 46 45 48 51 52 58 55 57 49 50 48 53 55 51 46 42 38 33 28 23 20 20 20 19
65 57 59 68 78 67 77 78 68 59 44 59 63 60 60 59 57 70 59 51 46 44 48 50 50 57 55 52 52 47 47 47 50 53 49 50 44 40 33 27 22 20 20 20
84 79 75 63 63 59 76 77 65 66 69 68 69 59 51 51 53 56 56 51 50 47 46 50 52 52 55 60 54 49 44 41 49 58 55 54 48 45 38 33 29 24 20 23
83 90 90 84 83 68 76 67 71 77 72 71 65 61 56 51 53 54 58 53 54 54 46 49 52 56 58 59 60 49 46 46 45 54 55 54 50 41 40 40 29 29 27 25
90 99 95 90 73 71 70 73 74 75 73 74 67 63 62 57 55 58 59 56 56 58 53 53 51 54 58 60 58 54 53 54 49 47 55 57 55 46 44 38 34 30 27 26
93 92 94 90 67 71 80 76 73 63 64 71 83 71 68 62 59 60 60 62 57 59 56 55 55 50 56 60 59 56 59 60 57 50 50 56 57 51 44 43 39 29 27 25
97 95 96 94 84 80 79 72 74 65 64 67 71 67 67 65 64 66 65 64 60 60 61 61 55 54 51 52 55 59 59 58 60 56 53 57 58 61 56 49 39 31 31 30
97 98 97 97 98 97 91 86 81 72 66 78 85 74 70 70 70 68 70 66 63 58 64 62 61 50 51 49 51 53 61 58 63 64 60 61 63 66 62 57 46 33 31 28

GFSCGP_prec_cthk_078.txt.gz
RH
26 26 22 21 17 18 14 12 10 13 19 31 34 64 62 59 58 84 81 62 57 60 61 59 57 49 42 37 35 34 34 33 35 35 37 46 47 59 59 57 54 54 47 51
27 24 22 17 19 19 17 14 13 13 15 23 44 60 56 58 63 81 82 62 58 58 59 55 53 50 44 37 33 31 31 30 32 33 34 43 48 53 58 58 50 46 44 45
21 20 20 21 18 20 17 14 14 14 16 17 37 61 69 57 59 70 83 60 52 60 53 51 49 50 47 38 34 30 30 28 28 31 33 43 48 49 49 49 45 43 40 40
26 22 25 20 19 19 19 17 13 15 16 19 20 29 66 65 72 68 73 72 57 55 58 54 50 48 45 40 38 32 28 25 24 28 30 37 41 46 39 68 48 38 40 41
22 25 24 25 21 20 20 19 18 15 15 17 19 32 36 66 61 59 53 72 66 50 57 54 49 44 45 43 41 36 31 26 21 23 28 31 37 39 44 38 46 43 39 40
28 26 25 24 26 26 22 22 21 18 14 15 16 24 32 57 56 58 54 69 75 57 57 58 48 42 45 46 43 39 34 28 22 20 24 28 31 36 40 38 45 43 37 34
17 18 27 24 26 27 29 24 25 24 20 15 12 17 23 38 42 39 52 58 54 58 58 61 57 52 42 38 41 39 37 31 24 18 21 23 25 33 38 39 42 40 37 38
26 31 20 25 27 27 28 29 29 28 22 16 13 13 11 25 37 56 48 50 59 60 57 62 59 56 54 53 40 36 36 35 30 23 18 21 22 28 33 38 38 39 37 37
20 15 30 37 31 30 31 37 28 32 27 22 17 14 11 15 33 54 62 65 57 73 59 57 58 55 58 58 50 36 30 36 34 29 23 21 20 20 28 31 35 34 37 39
22 20 22 37 40 37 37 37 37 33 35 32 23 20 16 13 23 42 44 52 54 76 66 61 60 55 55 59 60 52 38 28 35 33 28 22 20 19 21 25 28 34 32 35
27 22 15 26 42 45 45 38 40 38 31 33 30 23 19 16 15 21 42 39 37 71 83 69 64 61 55 57 61 58 49 37 29 37 34 29 24 22 22 23 25 27 31 29
35 30 26 22 25 38 46 46 42 47 47 35 31 25 28 24 19 20 24 37 35 53 78 78 74 47 48 56 58 56 54 45 34 29 35 33 30 25 22 22 24 25 26 26
44 38 38 27 22 22 29 35 42 44 43 48 35 27 28 30 23 22 23 34 41 45 64 67 60 62 56 62 58 54 47 42 38 33 31 36 33 29 25 22 22 25 22 24
37 41 48 49 40 40 36 26 35 40 43 39 42 31 37 36 36 36 39 44 49 48 51 51 58 53 50 61 58 56 51 46 42 35 31 31 32 31 28 27 23 24 24 21
40 39 44 47 49 57 43 37 35 37 45 47 43 39 60 56 60 56 54 46 46 53 58 54 54 54 57 75 57 57 60 57 51 45 34 28 25 29 32 33 29 26 24 21
50 50 50 54 52 58 50 40 31 34 43 51 50 54 66 65 64 69 70 67 61 59 64 55 53 50 58 76 54 54 58 58 57 51 46 33 31 31 30 31 33 31 28 25
51 78 71 61 55 60 57 48 38 31 34 47 45 44 53 61 67 80 78 79 70 61 58 53 50 52 60 81 69 66 62 61 60 56 50 44 34 29 28 28 30 30 28 27
54 54 82 67 71 83 46 45 48 34 25 35 35 39 46 62 78 80 80 83 69 63 53 48 43 47 50 67 67 73 73 62 63 57 50 48 39 32 28 27 26 26 28 26
58 60 71 85 68 73 56 71 72 67 44 48 56 63 66 74 64 81 86 78 71 63 53 49 45 41 43 52 66 63 61 67 57 55 57 50 45 38 35 29 25 24 25 25
73 71 62 61 75 73 78 72 71 65 61 63 55 66 66 68 59 79 82 76 70 63 57 48 46 44 46 50 54 60 62 61 62 53 57 60 55 48 43 33 27 24 24 23
73 80 90 66 59 58 63 73 74 76 75 75 68 60 64 68 74 74 84 80 74 68 57 51 53 48 46 50 59 57 56 54 53 57 54 57 57 55 51 47 39 32 27 26
77 79 83 80 76 69 76 69 73 81 84 78 67 60 54 65 70 69 66 69 71 65 54 53 51 51 48 49 58 60 57 53 53 51 53 57 55 56 57 52 49 38 33 31
88 85 83 81 88 78 82 80 88 78 72 75 73 63 55 49 57 64 64 55 55 58 54 51 50 51 54 50 53 60 56 53 46 49 53 55 58 55 57 57 52 44 41 33
84 82 81 74 65 68 72 79 95 80 69 64 63 62 56 52 48 46 48 50 50 52 50 47 48 50 54 55 56 56 55 59 50 54 52 50 56 56 58 55 53 48 44 39
84 85 86 83 81 76 74 76 79 79 73 62 59 60 55 52 50 47 45 44 46 45 43 43 47 51 52 51 60 62 61 64 68 71 61 56 54 54 59 57 53 50 48 41
88 89 90 89 91 91 87 83 74 70 68 65 59 60 61 61 60 57 54 52 50 44 43 45 49 56 53 48 53 65 71 75 73 72 68 65 62 59 57 62 58 57 52 44

GFSCGP_prec_cthk_084.txt.gz
RH
28 30 30 29 28 23 23 21 21 25 29 30 41 58 60 61 62 62 66 67 68 65 69 68 58 51 43 41 39 34 37 38 35 40 45 46 46 53 58 57 51 48 54 56
30 30 27 27 25 23 23 23 20 20 22 22 40 50 60 59 59 59 62 64 65 66 59 59 60 57 45 40 39 34 32 33 30 33 40 44 48 56 56 52 47 46 51 63
30 25 26 27 26 25 22 22 20 20 21 32 44 59 65 65 66 68 64 63 65 67 65 53 61 56 48 39 38 35 29 30 32 31 39 42 50 53 52 49 44 42 47 53
26 21 25 27 27 25 25 20 20 20 20 24 31 45 66 61 62 67 64 64 68 66 66 47 51 55 47 42 37 36 32 26 30 29 36 38 38 42 43 42 40 39 42 43
25 21 24 26 24 24 23 22 21 19 20 22 21 25 43 61 62 62 57 62 58 65 61 54 48 46 49 48 40 34 34 27 25 29 32 33 35 38 41 37 41 40 35 35
22 23 22 23 24 25 24 21 22 22 22 23 23 23 34 47 41 44 48 51 55 62 61 56 50 46 49 48 45 38 34 30 24 25 28 29 32 35 35 39 47 36 31 29
19 20 21 22 23 26 26 27 30 28 26 24 22 25 20 30 31 33 40 49 54 61 65 63 52 49 46 46 44 41 35 32 27 22 24 25 28 32 32 32 36 34 33 29
20 18 21 19 22 25 26 28 33 31 30 25 21 24 19 19 23 25 31 41 51 59 63 63 57 52 41 43 41 43 38 33 30 25 20 22 25 30 33 33 33 34 32 30
20 20 20 19 21 23 27 29 27 31 29 31 27 22 17 30 32 30 30 35 36 43 58 61 63 63 50 43 39 39 41 37 33 28 24 19 20 25 32 34 35 33 33 30
22 20 22 22 24 27 28 28 32 33 33 36 32 28 27 38 39 35 28 33 31 36 41 57 65 64 60 55 55 45 36 36 36 34 30 23 17 20 27 33 33 33 33 31
25 23 21 24 28 33 36 36 35 37 38 41 39 35 49 48 47 46 33 24 31 36 43 56 64 71 69 63 61 65 56 44 36 37 34 30 21 17 20 28 33 33 35 33
28 31 29 23 29 30 36 44 42 46 49 48 46 46 51 57 54 52 44 32 39 44 45 50 54 63 71 71 63 62 61 53 46 36 38 35 29 21 18 21 28 31 34 33
27 32 33 24 27 27 35 44 46 45 42 50 54 49 55 55 60 66 58 57 55 67 73 77 69 57 65 72 66 66 66 65 58 52 38 40 37 29 22 20 23 27 29 31
20 23 27 35 30 30 30 43 50 50 53 50 49 44 58 62 60 72 71 70 66 73 78 65 70 59 80 80 70 73 70 72 72 59 52 37 40 38 31 23 21 25 26 27
26 29 28 28 24 23 25 29 42 51 53 52 51 49 71 67 67 70 79 81 76 79 82 79 70 75 80 70 68 73 72 75 72 70 61 45 34 39 40 36 26 23 23 26
33 36 33 31 25 23 22 24 33 39 51 59 58 58 71 65 64 63 73 83 85 81 75 74 84 81 76 66 64 64 68 74 73 64 62 55 44 37 36 39 38 33 24 22
32 39 40 40 33 26 24 30 34 52 57 61 75 71 66 67 68 67 72 78 83 82 75 69 76 80 80 81 69 66 75 79 73 65 69 70 59 41 36 33 37 36 34 27
39 44 49 53 41 41 29 32 39 58 70 68 65 68 71 70 65 66 69 75 81 88 87 75 71 77 85 81 81 84 86 86 79 74 74 69 64 59 46 36 32 32 35 34
50 54 57 58 56 44 38 53 60 55 67 76 67 63 66 73 69 68 70 76 80 88 88 80 76 77 78 87 91 84 76 85 89 86 83 80 71 63 59 44 34 34 31 29
52 57 63 62 61 62 59 54 66 65 69 71 72 65 68 65 77 71 67 73 79 88 92 88 75 69 70 70 80 83 72 74 78 86 85 82 76 75 61 57 45 38 36 32
59 61 62 66 70 67 62 58 62 73 73 74 85 81 75 77 64 63 59 59 67 78 85 81 80 68 65 62 68 78 91 87 79 75 69 68 67 69 60 60 53 45 39 36
64 70 71 71 75 73 66 64 73 76 74 80 83 88 87 79 75 60 55 55 60 65 78 81 81 78 63 59 60 61 63 79 82 72 75 77 85 77 68 60 57 49 46 43
71 70 71 70 67 65 60 62 64 68 68 73 73 77 85 83 73 68 53 53 56 56 64 76 77 80 70 60 53 56 57 56 67 72 82 86 87 83 74 73 61 57 53 48
60 62 67 67 59 64 62 58 57 58 57 57 63 63 69 74 77 68 64 54 50 53 58 66 71 75 79 66 54 51 49 50 53 55 61 72 76 71 70 69 64 62 58 54
56 56 54 54 53 58 63 61 62 62 62 61 58 56 58 58 59 66 59 51 48 48 53 56 62 67 72 69 60 51 49 49 50 49 50 57 68 61 63 67 65 60 57 58
58 57 52 47 44 49 53 55 63 66 66 68 64 57 55 57 52 54 54 49 43 42 48 53 59 60 64 67 67 53 48 50 46 43 46 58 65 73 65 66 70 66 63 59

GFSCGP_prec_cthk_087.txt.gz
RH
27 32 33 32 29 28 29 29 32 34 35 35 46 50 53 57 65 64 72 71 73 71 64 62 51 43 44 41 41 34 38 41 44 43 44 52 50 60 58 56 55 56 58 58
33 33 31 30 31 29 26 25 28 34 30 29 35 45 46 53 58 61 64 67 69 69 70 59 56 44 40 41 41 37 34 37 41 41 43 47 50 57 59 56 53 56 60 53
35 30 31 30 29 27 25 24 29 32 28 44 44 50 51 54 59 65 70 69 69 67 67 65 56 49 40 39 43 38 34 32 37 40 42 47 54 61 58 53 50 53 59 63
32 30 28 28 29 27 26 22 28 27 25 24 40 53 50 56 60 61 67 65 72 71 70 59 52 49 45 38 40 40 36 32 32 33 35 40 47 54 60 52 49 46 47 53
28 26 29 28 26 26 24 22 27 28 24 22 24 26 37 53 57 56 56 63 70 74 71 63 58 51 49 45 38 40 39 36 31 29 31 34 41 49 51 49 51 44 47 48
24 23 25 25 25 23 23 23 23 26 26 26 22 21 27 48 41 42 51 59 65 73 72 69 61 54 50 48 45 39 41 38 33 27 28 30 35 43 45 46 44 44 37 38
23 25 22 22 23 25 24 26 30 27 28 28 24 23 21 26 34 34 37 48 57 67 71 69 69 59 53 46 44 41 42 39 36 31 23 27 31 37 40 46 48 45 36 33
24 24 24 22 22 25 25 27 31 29 31 28 29 25 30 33 34 31 30 36 54 61 68 65 65 64 59 49 43 42 41 40 36 34 25 23 28 32 35 38 47 44 38 34
24 24 26 24 24 27 31 31 27 31 29 29 29 28 30 35 34 35 34 32 33 45 66 64 64 61 60 51 44 42 42 43 38 34 30 22 24 28 30 34 37 40 38 38
23 24 27 24 25 25 33 32 34 33 34 35 31 35 55 50 49 42 37 36 33 31 47 60 60 62 64 54 44 45 45 45 43 40 34 27 20 22 26 32 35 38 39 38
22 22 27 27 30 32 30 35 38 39 38 38 38 59 55 57 54 48 41 35 32 30 34 49 61 68 69 60 50 44 42 46 46 42 38 36 29 20 20 26 32 37 39 37
26 29 30 33 32 31 33 37 39 44 41 45 43 63 51 55 53 47 46 44 40 44 42 52 63 77 78 73 67 58 51 45 44 44 42 39 37 33 21 18 25 32 37 37
29 34 31 29 31 30 33 36 40 45 45 49 51 57 56 58 56 51 52 56 53 49 47 54 64 79 80 81 76 71 68 64 55 53 47 43 42 38 32 20 18 25 32 35
32 32 28 26 31 34 37 34 37 43 50 48 47 48 69 63 59 56 57 60 61 60 58 60 69 75 72 70 75 76 72 70 65 54 49 47 45 42 39 33 22 19 24 30
25 29 27 26 27 27 27 28 30 37 42 48 48 71 71 65 61 60 60 68 69 68 65 65 70 80 84 74 71 75 75 74 73 72 62 48 45 45 44 43 37 23 21 23
29 36 29 27 28 26 27 32 30 34 44 44 51 69 74 74 63 58 55 59 70 73 74 70 71 84 86 77 79 73 76 74 73 75 79 72 55 48 42 44 44 40 27 22
31 37 34 33 32 26 29 32 39 44 51 54 63 67 73 77 70 63 62 61 64 70 78 72 73 86 81 83 82 79 80 71 71 76 79 82 78 59 47 43 44 47 42 35
39 42 43 44 35 35 31 43 42 41 47 54 54 59 67 68 68 66 66 68 66 70 75 82 78 84 78 80 84 84 79 75 69 78 84 83 83 73 53 49 46 43 44 43
42 45 52 53 50 42 40 43 49 46 45 46 56 61 62 64 67 77 65 66 70 72 80 81 89 78 76 68 80 81 82 86 86 88 88 87 79 77 69 48 46 45 44 39
47 48 52 55 54 54 50 48 50 53 50 48 46 49 63 68 67 74 76 64 62 73 78 79 79 84 76 69 65 80 92 94 90 89 88 89 79 80 72 78 56 48 47 41
57 54 52 56 60 55 53 48 51 61 54 54 50 51 55 65 74 72 69 68 58 61 65 72 76 81 85 79 72 74 87 96 94 89 87 87 79 69 69 68 72 63 45 44
56 58 60 61 63 62 51 49 50 56 56 54 51 52 51 51 64 75 73 67 64 55 57 57 66 69 79 79 78 70 71 82 92 89 81 77 74 76 80 77 76 74 63 52
51 51 55 55 53 54 54 49 48 46 46 49 51 49 49 51 53 70 70 69 62 58 52 55 55 64 71 82 76 72 63 62 73 86 90 81 78 76 79 77 76 74 65 59
46 49 48 45 40 45 47 49 52 51 51 50 49 51 54 53 54 54 66 70 67 58 55 53 58 53 61 72 81 71 62 61 56 65 73 78 85 79 73 72 73 70 72 62
48 51 50 49 43 42 42 43 41 46 53 57 58 60 60 57 56 57 52 60 64 61 55 53 51 54 49 56 65 73 66 58 53 56 60 59 68 74 71 64 71 70 67 67
53 52 53 51 40 38 38 38 41 46 50 53 59 62 64 66 61 59 53 50 53 57 54 51 51 52 49 48 54 65 72 64 55 51 48 54 54 64 73 75 76 69 70 70

GFSCGP_prec_cthk_093.txt.gz
RH
16 20 25 28 32 34 37 34 36 40 58 71 63 59 62 70 77 80 78 77 75 73 63 54 46 41 35 32 31 39 43 45 45 50 52 49 59 61 66 64 64 65 63 55
19 23 26 34 35 30 33 36 33 35 42 59 53 50 57 57 66 74 78 76 76 73 69 59 49 45 38 36 34 35 42 45 43 44 51 51 57 56 63 60 58 64 63 56
20 25 31 34 37 33 32 35 33 31 31 49 61 58 59 57 61 70 77 80 79 78 71 64 56 47 42 38 40 37 39 42 44 44 45 54 53 56 61 60 53 64 63 58
26 33 35 34 34 33 33 31 34 31 29 32 53 44 58 59 61 72 80 80 81 80 77 68 62 48 42 39 41 42 41 42 44 45 44 44 51 56 59 59 54 55 59 60
31 34 36 36 34 32 31 29 33 29 28 26 45 38 49 59 63 64 74 80 82 84 80 71 66 56 45 43 42 43 44 43 42 41 44 43 46 51 56 56 53 53 54 53
28 30 32 33 34 31 29 28 28 27 27 24 27 32 48 50 59 60 63 68 76 80 84 79 71 63 56 51 45 46 45 45 43 39 39 42 42 45 47 54 54 50 55 51
28 29 29 28 28 29 29 27 29 29 27 25 23 34 58 55 56 60 59 63 66 72 78 76 72 63 61 53 47 46 45 44 44 40 37 37 39 39 40 46 51 47 48 46
28 27 28 27 27 26 29 27 27 31 27 24 26 38 58 54 53 54 55 57 57 60 67 71 67 68 60 58 53 51 44 44 45 44 39 36 34 35 34 37 41 43 40 40
30 29 28 28 29 28 29 29 27 27 28 25 27 39 47 46 48 47 48 53 56 54 60 69 69 67 67 60 55 52 49 46 45 46 46 41 37 32 31 33 35 38 41 42
31 31 29 27 29 30 30 31 30 28 31 29 40 46 52 50 49 48 47 47 55 55 53 69 73 68 66 68 65 59 55 51 48 48 46 46 41 36 30 31 31 33 38 42
31 30 31 31 31 34 32 32 33 32 31 30 34 52 57 60 54 50 51 52 53 53 52 63 77 78 72 69 66 61 59 59 54 48 48 47 45 42 36 29 30 30 31 35
29 31 34 34 34 33 32 33 36 34 38 34 34 53 63 60 58 53 51 53 54 55 55 57 66 80 81 75 73 71 69 61 56 54 53 51 49 47 44 36 26 27 29 30
30 28 33 33 33 32 33 31 33 35 35 40 33 51 63 61 59 55 53 52 52 56 57 59 62 64 79 82 82 76 69 62 62 58 57 57 52 48 47 43 38 28 25 27
31 32 29 27 32 33 32 30 31 34 37 39 40 58 63 62 61 57 55 53 54 56 57 58 60 66 73 76 87 84 79 67 63 61 60 57 57 51 49 48 46 41 35 26
32 35 35 33 30 29 29 29 28 32 35 38 51 64 67 66 64 62 60 57 57 57 57 56 59 60 70 74 73 85 89 82 71 62 59 58 59 55 50 48 48 46 43 39
34 35 33 32 29 26 25 29 30 32 42 49 57 66 68 64 61 58 57 59 57 56 58 59 58 56 54 60 69 75 87 91 85 75 67 64 61 61 52 47 46 46 44 42
29 30 28 28 29 27 23 28 32 39 42 46 54 58 62 63 63 61 56 52 54 56 57 58 60 58 60 59 56 62 73 85 94 89 87 83 77 66 56 54 51 46 44 44
26 27 31 31 28 28 26 32 34 35 40 42 47 53 56 57 59 62 62 58 53 51 52 54 55 58 59 56 60 57 60 73 88 95 92 91 85 86 81 67 54 50 47 46
29 28 35 33 29 28 32 35 36 31 38 37 39 45 47 48 51 56 55 56 53 50 49 49 49 50 52 57 57 56 56 61 75 94 98 95 91 88 87 83 74 62 52 50
40 37 35 36 35 31 30 32 35 35 33 36 37 35 33 34 36 45 49 49 51 51 46 48 46 47 46 48 53 56 57 58 61 72 84 90 91 91 91 87 87 87 84 64
51 53 48 42 37 31 31 33 36 37 35 39 37 34 31 29 29 29 29 31 35 37 40 42 43 45 46 45 44 50 55 61 60 63 71 75 81 91 93 93 89 88 92 91
43 48 53 55 50 39 35 37 39 39 38 35 33 32 31 31 31 29 28 27 26 26 27 30 32 36 39 40 41 44 49 57 58 60 62 66 66 85 93 91 90 88 91 92
46 37 43 39 37 38 40 38 39 36 35 33 32 31 31 32 31 30 29 27 26 26 26 26 24 25 31 33 35 37 40 48 56 59 60 66 70 76 82 87 87 84 82 83
43 36 38 35 33 34 37 38 37 34 33 31 31 31 30 30 29 27 29 29 28 27 26 26 26 24 22 28 32 31 37 41 44 55 57 64 68 79 76 81 81 77 93 95
50 45 41 38 36 35 34 33 32 30 31 30 30 30 31 31 26 23 23 24 25 26 28 28 28 26 25 22 24 32 33 38 39 53 54 63 66 68 75 72 82 76 79 94
57 56 53 45 39 39 37 33 31 31 30 30 31 34 34 33 31 27 27 27 27 26 25 29 32 32 29 27 23 24 32 34 37 46 51 63 62 59 66 66 74 77 76 78

GFSCGP_prec_cthk_096.txt.gz
RH
15 17 17 19 24 40 41 39 39 46 57 73 72 70 77 79 82 80 81 82 79 75 63 52 47 42 37 36 38 38 40 41 48 51 54 56 66 81 72 68 67 61 56 53
17 19 19 26 28 32 33 33 36 37 52 67 55 52 61 71 75 81 81 82 82 78 67 56 52 44 40 35 36 40 43 44 47 54 56 60 68 74 69 65 62 62 60 54
18 19 25 30 30 27 32 37 34 36 41 57 60 63 70 69 72 81 82 79 77 77 72 60 54 48 45 38 35 40 46 46 45 49 54 56 60 65 68 65 61 65 59 58
22 29 28 31 33 29 32 37 33 29 35 48 60 61 65 66 73 80 82 80 78 79 76 69 61 49 44 38 36 37 41 45 45 45 48 56 62 63 68 65 61 62 61 56
26 32 31 35 36 34 40 32 33 27 30 30 44 48 67 69 70 69 80 82 82 84 81 73 67 59 47 41 40 40 40 42 46 45 47 54 56 61 65 67 63 57 59 61
38 38 40 39 38 34 35 30 31 27 26 28 39 42 59 66 69 67 74 79 81 76 78 78 73 68 52 47 43 45 43 42 43 43 45 48 54 56 60 62 65 61 62 59
32 33 30 33 37 36 28 26 30 33 26 25 27 37 67 64 67 65 71 73 72 76 78 75 73 71 61 49 45 47 46 43 43 43 42 44 49 49 52 58 63 63 61 60
30 29 31 28 30 33 28 27 29 35 28 26 24 40 64 57 62 63 67 65 67 72 72 81 76 74 67 59 53 46 47 47 44 42 42 42 43 47 45 51 55 58 59 56
35 32 29 28 28 27 30 30 32 31 30 26 28 56 52 56 59 58 62 64 62 64 63 70 79 78 72 66 57 52 51 48 47 44 45 43 41 40 43 44 44 49 50 51
34 34 29 28 29 28 29 30 29 26 34 31 33 43 60 57 60 56 58 60 60 62 61 68 74 82 76 72 68 65 59 55 54 54 48 47 46 43 39 39 40 42 45 44
32 32 30 31 32 32 29 30 28 30 31 29 38 49 60 58 55 54 55 55 56 61 61 73 78 81 77 74 71 67 66 62 58 58 56 48 48 47 44 38 36 36 39 39
31 34 34 33 30 30 33 33 32 31 34 30 32 71 64 56 57 56 53 52 53 57 62 63 77 87 85 74 74 72 63 61 61 59 57 54 49 48 49 45 40 33 34 33
27 30 34 33 30 31 30 33 31 30 33 36 32 68 68 60 57 58 57 53 53 53 57 61 63 71 79 83 87 80 71 64 62 61 58 55 51 47 46 48 46 41 31 29
27 26 29 36 37 34 31 28 29 31 34 37 36 70 69 62 60 56 54 53 54 53 54 56 59 64 71 84 78 88 83 76 73 64 60 55 52 50 48 45 48 47 42 35
30 31 28 27 32 30 30 28 27 31 34 39 54 61 66 63 59 58 55 54 52 54 54 56 57 60 65 71 81 87 88 85 82 77 66 65 59 58 51 50 47 46 47 42
33 34 31 31 26 24 26 29 28 28 33 41 60 68 63 62 60 59 57 56 53 51 50 51 53 54 56 61 67 74 82 89 89 87 83 70 67 63 62 61 52 50 46 43
32 34 29 27 27 25 22 21 22 29 34 42 54 55 59 60 59 58 55 53 53 54 53 51 48 48 51 55 57 62 73 80 85 89 91 87 77 68 66 67 63 56 50 47
26 28 26 28 27 24 30 28 27 31 33 42 50 54 56 57 59 58 55 52 50 48 49 50 50 47 47 48 50 57 65 69 73 82 87 88 86 81 72 68 69 68 61 55
26 27 28 30 24 28 27 30 29 28 33 35 41 46 48 51 52 57 55 53 52 50 48 46 45 45 47 47 48 48 53 59 64 67 76 77 77 85 86 75 73 71 67 62
27 29 33 32 31 30 31 27 30 31 32 27 36 40 40 40 41 52 49 47 46 45 45 46 45 43 42 43 45 48 49 50 53 59 60 66 72 74 72 89 90 90 87 78
40 40 37 39 36 33 36 29 30 30 39 33 30 34 31 31 36 39 34 29 29 30 32 34 35 38 40 40 40 42 45 48 51 52 51 58 65 69 84 96 94 94 94 90
45 46 51 49 50 46 42 32 34 43 38 37 33 31 30 28 28 29 29 28 25 24 22 22 21 24 28 32 36 39 42 43 44 47 52 50 52 57 69 83 88 89 90 93
44 40 48 40 48 49 42 43 43 41 38 33 31 30 30 28 28 29 29 28 27 26 25 24 24 20 20 22 24 26 30 32 32 35 42 49 51 52 53 58 68 76 77 91
39 39 35 36 29 32 34 39 40 38 36 34 31 30 31 31 30 29 28 26 25 25 26 25 23 22 21 21 21 22 22 25 26 28 34 40 43 49 49 53 56 65 69 69
48 46 41 35 34 33 36 36 36 36 35 34 32 31 29 28 26 24 23 23 24 24 24 24 24 22 21 23 22 22 22 23 24 27 31 35 36 40 49 48 49 55 65 68
54 50 53 46 40 36 38 37 37 35 32 29 27 26 28 28 27 28 27 27 27 26 26 25 25 24 22 20 21 23 25 24 23 23 25 31 36 37 40 48 49 50 51 61

GFSCGP_prec_cthk_102.txt.gz
RH
18 14 13 16 22 31 43 44 55 56 68 58 63 81 87 86 91 77 65 60 57 56 53 50 45 42 44 43 39 37 40 42 42 45 63 72 70 63 68 69 64 56 49 48
18 14 13 15 20 26 39 50 47 73 73 60 64 81 87 89 88 78 69 63 61 61 56 50 46 46 41 41 39 37 39 38 43 43 59 68 88 70 62 58 53 51 45 45
19 13 14 16 20 25 32 42 45 76 67 51 67 85 89 85 83 86 76 74 69 72 62 54 49 46 40 38 38 38 37 35 40 47 53 64 73 76 67 61 52 50 44 40
19 19 16 19 21 25 30 39 56 68 54 61 55 85 80 87 88 98 86 85 75 72 85 57 51 49 39 36 35 38 37 37 42 56 51 62 63 69 66 63 56 50 48 45
18 22 19 21 24 26 38 42 47 40 43 55 57 61 74 82 92 88 88 79 77 75 72 67 54 53 44 38 34 34 36 38 42 50 61 59 64 67 59 72 51 52 52 47
25 22 27 25 30 34 36 37 43 41 35 49 51 50 76 86 95 78 79 78 75 77 74 67 62 55 59 43 36 29 32 37 42 40 55 62 64 77 75 85 59 52 48 48
27 30 28 29 31 33 36 42 47 43 38 35 45 49 69 68 84 92 87 82 81 80 75 75 73 65 60 53 39 32 28 31 35 39 37 45 67 72 75 76 65 58 52 55
29 39 34 33 38 40 40 44 43 42 37 30 49 65 71 67 70 73 89 89 88 89 72 77 69 70 76 67 52 38 33 29 31 32 34 33 42 60 64 66 58 55 69 60
37 37 40 42 42 50 42 41 35 31 28 25 50 72 75 69 72 75 77 74 79 85 89 92 81 76 77 82 80 49 39 35 32 31 32 32 31 36 42 49 50 50 82 88
47 42 43 35 35 42 46 39 36 37 37 28 56 59 67 67 63 58 64 71 67 73 75 73 83 76 92 81 73 90 44 40 39 37 34 33 32 32 37 40 40 44 61 65
45 46 42 34 30 33 39 34 33 34 30 31 65 73 75 72 61 53 55 59 64 69 71 72 72 72 74 77 75 94 73 62 52 52 44 39 36 35 36 36 30 31 41 55
44 44 48 37 30 23 31 34 30 37 33 32 58 89 76 72 64 58 55 57 63 62 62 66 68 69 75 85 84 99 91 87 59 59 58 54 52 47 41 40 38 31 25 34
44 39 45 40 32 28 28 28 34 35 34 36 48 72 73 74 71 64 56 54 56 59 60 62 64 73 76 84 91 92 74 92 79 69 68 61 53 53 49 49 45 41 36 25
43 38 42 52 47 35 30 28 29 35 37 34 60 77 77 78 76 71 64 54 53 56 59 59 61 65 70 72 74 65 64 80 89 75 84 82 67 61 59 54 52 50 43 41
28 38 38 41 47 35 31 25 29 29 30 45 76 77 80 78 76 75 69 63 50 50 53 56 57 58 62 65 66 66 68 83 88 94 90 81 78 62 61 65 62 55 50 44
33 31 39 46 39 37 33 33 33 26 27 61 60 72 75 74 74 73 71 65 52 49 48 49 49 52 56 57 60 63 63 69 71 83 79 88 85 72 66 65 67 64 57 53
40 41 33 36 41 38 37 33 31 28 27 40 55 60 68 73 72 71 68 64 55 50 48 48 47 47 48 51 59 64 64 67 68 66 70 78 87 84 82 77 74 74 71 61
39 39 38 41 40 37 32 36 31 30 32 39 48 61 65 68 70 70 67 61 56 54 49 48 46 46 48 49 50 54 62 65 67 64 66 69 75 78 83 87 90 79 76 74
27 29 32 35 35 33 39 34 28 26 31 52 55 60 66 71 64 64 64 62 59 57 53 49 48 47 45 45 46 44 44 48 54 57 59 61 69 69 72 82 91 93 89 79
28 26 34 37 35 39 52 45 36 27 33 40 52 59 59 66 64 58 56 56 54 51 49 48 46 44 45 43 43 43 42 39 39 40 39 47 51 56 56 71 83 83 81 79
31 32 30 37 44 48 50 50 40 37 41 43 54 59 56 61 54 56 50 46 48 49 48 47 44 42 41 40 39 38 39 40 39 37 36 34 34 37 47 51 53 64 75 80
51 44 42 35 39 52 59 47 47 54 50 48 53 78 82 78 59 54 53 48 46 44 43 43 41 39 36 35 34 33 31 30 29 28 29 30 31 32 34 38 41 46 52 55
37 50 60 64 65 60 53 56 54 53 48 49 51 56 54 52 47 44 46 48 44 39 34 31 28 26 26 23 22 21 20 20 19 17 16 18 20 23 27 30 35 37 39 44
47 37 45 48 61 57 58 51 52 55 49 48 45 46 47 44 40 38 38 36 33 31 28 26 25 24 23 19 17 17 16 15 13 13 14 15 14 12 14 18 23 27 32 37
53 65 52 39 44 46 43 45 44 38 33 34 36 38 35 36 36 35 36 33 32 32 27 26 25 25 25 22 17 16 15 11 10 11 12 12 13 14 13 13 13 15 18 25
79 63 55 58 55 50 49 47 43 37 32 33 33 36 39 38 37 36 33 32 32 33 27 26 26 25 20 18 18 18 15 16 15 14 14 14 13 13 13 14 15 17 20 21

GFSCGP_prec_cthk_105.txt.gz
RH
19 18 17 22 26 29 34 48 60 69 69 71 78 69 67 75 82 92 73 63 54 57 51 42 39 37 38 42 40 44 43 38 46 56 72 62 66 69 65 59 56 52 58 71
21 20 12 12 19 26 34 46 66 78 86 78 83 76 71 83 84 90 73 61 57 51 49 45 42 37 35 39 38 39 42 44 42 51 61 67 64 63 59 54 55 52 48 53
20 15 12 12 15 21 33 39 57 80 81 81 87 78 79 85 88 92 83 70 60 54 50 45 44 39 38 36 35 36 37 40 40 48 58 78 66 63 68 58 53 48 44 51
16 17 18 14 15 21 31 37 55 68 72 83 77 81 83 88 85 95 89 70 71 63 68 59 49 43 38 37 34 34 35 38 42 49 55 62 69 68 63 56 54 48 44 46
15 17 20 17 15 21 29 43 56 61 66 67 70 76 75 81 85 88 86 80 73 70 73 62 53 45 41 37 33 32 31 34 44 46 56 65 67 71 63 61 56 53 47 42
18 17 21 20 16 22 33 37 54 62 71 93 66 63 84 79 77 80 81 77 81 78 75 74 64 51 45 41 38 33 30 34 39 53 51 56 58 70 67 61 52 51 52 46
23 21 22 22 22 25 39 45 53 61 85 74 50 63 70 80 77 78 86 82 94 84 73 82 73 63 49 45 46 38 26 33 40 42 51 55 61 68 70 71 58 53 54 51
29 24 24 25 23 25 44 44 53 65 53 43 43 75 82 79 82 79 75 98 93 95 82 79 81 84 76 53 45 45 32 26 33 34 40 46 61 63 71 62 60 69 61 54
48 32 30 27 26 32 43 44 42 52 44 39 75 85 79 81 75 74 78 85 93 89 88 83 81 85 80 77 65 50 47 27 28 31 33 38 42 54 55 53 55 67 73 68
51 41 38 41 36 34 41 41 46 46 42 46 73 81 84 76 73 73 70 73 83 93 87 83 90 82 89 79 77 64 65 52 41 33 33 32 38 39 41 46 54 55 62 63
49 47 45 49 43 38 41 35 40 40 42 44 71 85 80 80 76 72 70 72 80 86 79 86 85 82 88 85 79 80 86 76 66 53 55 42 41 43 41 44 54 48 45 45
41 49 47 39 40 35 42 39 36 44 43 47 66 89 89 85 83 75 70 72 75 78 80 81 84 87 92 85 79 89 87 81 78 64 66 60 44 46 45 40 39 45 46 42
47 52 58 48 39 34 32 42 33 33 38 42 53 85 85 85 86 83 72 69 68 67 71 76 71 70 72 76 81 89 86 83 79 77 69 72 68 61 53 47 41 38 34 31
49 51 54 62 50 40 34 32 36 33 40 64 76 84 83 79 79 83 79 70 65 64 64 62 64 63 69 71 73 81 80 70 68 77 85 84 75 72 76 73 55 49 44 37
38 59 48 48 48 39 32 28 31 34 40 55 71 71 81 80 78 80 80 72 65 62 61 60 60 61 66 68 67 64 62 60 59 76 80 93 84 78 83 85 72 63 58 53
39 44 51 49 44 39 35 30 25 33 49 57 63 73 71 76 78 79 79 72 65 60 56 56 57 61 62 62 61 62 63 64 63 65 85 87 82 82 88 78 72 67 67 63
39 47 51 50 45 44 40 35 31 33 36 46 63 65 67 73 74 73 72 70 65 63 60 54 49 48 56 59 60 60 60 61 58 57 70 81 83 90 89 92 79 77 75 69
39 40 45 48 44 47 41 39 36 35 36 44 50 58 69 68 69 70 70 68 65 62 57 53 48 47 49 53 56 59 59 58 61 61 64 68 63 74 79 89 90 88 88 83
28 27 40 44 45 37 36 43 39 39 55 50 49 56 62 71 68 65 65 64 64 62 57 55 52 49 47 48 51 51 52 53 54 55 57 56 64 60 61 68 73 80 84 91
26 25 31 39 40 42 47 42 38 38 63 60 51 56 57 65 68 64 63 62 61 58 59 55 51 52 50 46 45 45 44 44 42 40 40 41 42 46 51 54 64 64 66 78
42 32 32 39 45 54 46 42 42 49 62 59 61 52 59 65 57 55 54 53 51 54 54 53 51 49 48 44 40 39 39 37 36 34 33 33 34 34 34 39 43 45 57 65
57 46 37 32 44 60 49 42 52 66 59 62 60 61 59 59 60 56 49 49 47 47 46 46 46 43 41 39 37 35 34 34 31 28 27 27 27 27 28 28 29 32 35 44
51 52 51 50 50 49 45 50 56 59 56 59 59 59 59 63 65 74 66 62 53 45 44 45 42 39 36 34 33 32 32 27 23 21 19 16 16 17 19 20 22 24 28 29
44 39 46 51 68 67 45 44 47 54 60 57 53 52 50 51 54 73 81 62 50 42 37 38 36 30 24 21 19 17 16 13 11 10 9 9 9 10 11 12 13 16 20 23
67 54 43 48 51 50 45 44 46 47 47 48 52 53 50 50 47 45 44 42 38 32 30 28 27 25 22 19 16 13 11 11 9 9 9 8 9 10 11 11 11 12 12 14
76 73 67 69 57 50 49 48 43 38 36 35 30 27 30 41 46 46 45 40 32 29 28 28 26 22 19 16 14 14 12 11 11 10 10 11 11 11 11 11 11 9 10 12

GFSCGP_prec_cthk_108.txt.gz
RH
21 20 23 27 29 36 45 51 60 71 75 78 81 84 76 78 86 87 80 70 60 55 51 54 50 46 48 43 43 42 44 49 66 82 69 67 82 75 63 57 56 53 55 48
20 19 16 18 27 36 44 43 56 76 78 80 87 89 84 79 84 85 82 73 63 62 64 52 47 44 45 43 43 40 44 44 54 73 70 72 73 67 61 55 54 59 61 55
20 16 16 15 23 30 36 40 50 58 76 86 87 94 87 83 83 89 87 82 66 56 56 54 48 44 41 40 41 38 44 45 51 64 76 74 78 66 63 56 54 48 47 54
17 17 17 16 16 23 32 35 41 57 60 82 78 81 82 78 87 92 91 81 68 64 56 54 48 47 43 37 37 35 39 44 45 55 75 79 74 68 63 60 48 39 46 50
15 16 17 17 15 17 30 43 51 60 72 75 78 77 69 80 92 91 90 89 73 69 66 56 48 49 47 40 37 36 34 40 42 48 63 69 76 66 59 55 50 46 45 42
20 19 21 17 16 18 37 52 66 71 75 79 71 75 79 76 79 82 89 92 83 74 82 78 62 55 48 43 36 35 33 36 43 47 57 68 71 68 70 56 53 48 46 42
24 20 20 19 19 25 33 51 67 74 72 73 72 79 74 75 74 79 80 87 89 84 81 90 75 63 49 44 41 41 33 35 42 52 55 63 67 68 66 60 51 49 47 45
33 27 18 19 20 28 35 40 61 60 71 68 58 69 74 76 75 74 73 88 89 88 92 94 85 70 53 45 50 42 35 32 41 48 54 59 63 69 77 72 56 56 50 47
36 29 22 23 22 29 35 45 46 53 55 64 81 84 82 82 78 80 77 74 81 89 94 92 81 80 62 53 51 52 39 29 37 39 44 48 65 69 70 66 61 66 63 55
40 34 28 27 27 26 33 43 49 50 56 58 81 84 85 83 82 82 77 66 75 83 96 95 97 87 77 74 65 62 52 30 36 37 39 42 43 59 60 60 58 61 71 71
44 39 37 34 37 31 31 42 50 49 53 54 79 82 82 85 86 86 83 80 80 77 96 96 91 85 86 90 85 77 61 49 44 44 43 41 40 44 48 52 51 55 54 60
43 46 50 42 45 35 34 39 52 53 49 64 77 85 81 83 89 92 87 86 79 83 77 82 93 86 83 88 94 89 87 83 77 57 52 45 41 42 44 44 49 50 45 47
46 45 60 51 47 47 37 39 46 46 48 62 74 87 82 80 85 86 84 83 82 84 82 86 86 85 82 81 96 96 93 93 90 83 79 56 52 48 45 48 46 44 39 39
49 48 57 60 52 50 48 41 44 46 51 68 75 81 79 79 75 73 86 82 78 77 79 79 83 85 86 83 85 93 93 93 84 66 74 76 63 57 48 52 54 47 41 36
44 50 52 55 50 41 38 35 37 45 49 50 70 70 72 75 72 77 85 85 79 76 74 73 78 76 72 71 72 76 84 81 70 64 60 73 76 75 75 72 68 66 61 53
32 47 54 58 56 45 37 35 36 49 60 61 67 74 73 74 75 80 83 81 75 72 69 66 65 66 69 70 70 70 68 64 62 55 58 78 87 87 85 85 89 85 81 74
39 38 51 56 56 48 42 41 37 45 51 60 63 61 67 74 74 76 79 79 74 66 62 62 62 64 64 65 61 61 62 62 62 58 54 57 84 83 82 84 88 90 88 82
45 44 42 52 56 55 50 44 42 44 52 53 59 64 63 69 72 72 74 75 72 68 63 61 58 57 55 55 58 60 60 59 58 61 59 58 56 65 66 72 82 87 88 84
36 42 44 44 56 52 51 50 48 49 63 62 58 64 64 63 64 69 68 69 68 63 62 62 60 58 60 56 57 59 58 56 57 58 61 61 60 60 63 80 73 74 92 94
27 30 29 41 44 49 49 45 49 48 63 60 61 66 62 59 60 59 61 61 61 63 64 62 63 60 58 58 59 57 54 51 48 47 48 50 52 54 55 62 72 81 79 76
42 36 30 36 45 47 45 42 43 47 53 61 64 65 65 65 58 53 58 60 65 64 61 64 62 60 57 53 51 51 51 49 45 41 38 38 38 40 42 44 47 49 57 65
58 50 41 34 40 49 42 41 46 46 48 54 64 69 70 70 70 63 56 53 53 53 59 58 56 56 53 51 48 46 45 43 40 36 32 30 29 29 29 30 31 32 34 38
54 53 54 45 46 45 42 46 48 48 54 63 67 68 71 72 76 75 69 62 60 58 48 47 47 49 49 47 43 39 37 36 35 33 29 25 24 24 23 23 23 23 25 27
66 60 63 56 48 44 44 44 48 52 50 56 60 67 74 75 75 73 74 69 64 68 64 52 40 34 36 41 35 30 27 25 24 25 25 22 18 15 15 15 16 16 17 18
73 67 60 59 57 55 55 63 47 44 46 50 56 57 59 59 59 59 56 57 54 58 65 56 39 30 25 20 18 15 14 14 13 13 12 11 11 10 9 9 10 10 11 13
67 70 76 72 62 53 48 50 51 45 43 44 45 44 47 47 45 42 39 39 41 43 48 45 35 28 23 19 15 14 13 12 11 10 10 10 9 9 10 9 8 9 10 9

GFSCGP_prec_cthk_111.txt.gz
RH
26 25 29 37 41 41 39 43 57 69 71 75 85 84 77 74 84 89 89 84 67 57 52 54 51 52 47 46 45 42 54 64 72 72 64 68 65 64 61 59 58 52 51 48
22 21 18 29 37 39 39 40 64 72 77 83 89 90 88 83 84 88 87 85 73 58 77 74 55 49 44 40 40 41 46 57 73 71 67 78 68 63 56 58 58 55 50 46
20 18 19 19 30 38 40 40 48 63 69 77 87 96 91 84 81 90 89 92 80 58 55 58 51 45 42 38 36 39 40 46 60 71 68 71 67 59 58 56 56 60 53 48
18 19 19 18 25 34 39 43 38 52 62 71 74 84 88 85 84 83 87 90 73 68 78 58 51 46 40 37 36 38 40 41 51 68 74 73 73 73 65 56 49 46 47 51
17 17 18 18 16 27 38 40 37 53 62 66 72 77 76 81 88 84 82 83 79 67 68 59 50 50 48 41 35 36 38 42 42 56 72 73 68 67 61 50 44 40 50 49
19 19 18 17 16 24 42 53 62 69 69 73 71 71 78 79 80 84 85 85 91 77 78 69 58 57 52 48 40 36 36 39 40 50 57 69 72 66 62 56 51 44 45 46
24 21 19 19 19 21 33 52 75 78 82 73 70 80 73 79 77 79 80 83 88 86 78 71 67 64 60 48 37 38 35 38 40 46 58 66 69 69 68 59 55 47 42 40
30 24 20 19 19 22 37 38 55 65 75 67 75 77 81 80 79 78 86 86 87 94 77 80 82 67 70 56 39 41 38 36 40 47 57 62 67 69 68 64 53 52 49 47
34 29 25 21 21 25 30 37 42 56 52 67 78 78 79 82 80 78 83 81 83 96 94 90 88 72 89 59 49 44 45 38 39 48 55 64 64 69 77 75 63 58 54 52
39 33 28 25 24 28 29 33 43 46 54 58 78 78 83 82 81 81 79 76 78 87 90 89 94 88 76 65 54 57 52 45 35 45 49 56 65 73 73 72 67 72 68 61
43 40 34 32 32 30 36 37 40 42 51 58 74 78 81 85 83 83 82 75 71 74 82 89 82 88 91 75 58 53 52 48 33 37 45 48 53 59 71 65 64 73 80 78
43 43 45 41 44 33 35 43 43 48 52 72 78 77 78 82 85 86 84 78 75 72 70 85 95 98 94 77 72 71 71 67 44 38 40 45 47 52 55 56 54 53 61 63
43 45 51 46 53 45 38 35 40 46 53 66 72 76 80 78 77 79 82 84 83 76 72 83 92 96 91 93 87 85 94 79 69 48 46 48 47 48 46 47 50 53 52 53
44 50 52 61 52 50 46 38 33 41 56 67 72 79 81 78 74 73 74 74 76 77 82 89 87 96 96 93 83 80 94 98 96 79 69 66 62 51 52 51 48 46 51 48
44 50 53 62 55 47 46 40 37 35 49 52 63 75 75 75 72 69 69 69 76 75 80 90 87 92 94 90 91 91 93 99 88 74 67 72 77 69 65 60 54 54 49 47
44 51 51 59 62 49 43 41 46 49 57 63 66 64 69 77 73 69 70 71 79 76 75 75 79 89 88 84 86 90 92 96 94 82 72 63 70 86 79 75 60 61 62 57
46 44 48 56 61 57 53 44 43 60 62 61 69 65 68 69 74 74 74 76 78 77 73 70 70 72 70 71 75 77 84 81 77 76 69 62 74 81 82 84 84 77 77 75
45 42 43 50 53 70 55 43 48 60 65 65 64 63 62 65 69 75 73 72 73 75 71 71 71 71 70 71 76 78 78 73 70 68 65 59 60 67 78 84 79 80 80 84
47 47 51 52 55 53 58 53 51 64 64 63 62 66 67 69 70 69 70 70 72 71 69 69 70 70 71 72 69 68 68 69 67 65 64 62 61 59 58 62 61 73 81 89
37 40 41 46 44 47 47 53 54 56 57 60 70 67 63 65 66 66 66 66 67 72 72 66 65 66 69 69 68 65 62 60 58 55 57 59 66 64 68 66 63 65 74 80
32 36 32 36 38 40 38 45 59 59 53 57 63 74 71 68 62 62 63 64 65 69 67 67 65 64 61 60 58 56 53 51 49 49 47 48 50 50 48 50 54 60 65 64
43 46 45 38 38 43 42 46 51 55 59 65 67 67 74 73 72 65 62 61 61 62 67 69 66 65 61 56 51 48 46 44 41 38 35 33 32 32 32 34 36 35 37 38
58 55 59 54 44 42 42 46 50 47 51 58 67 70 76 76 76 74 69 67 64 65 61 61 60 61 57 54 50 45 42 39 38 36 34 31 28 27 28 27 27 27 29 30
66 56 56 52 49 44 36 39 43 47 48 54 64 73 78 80 80 82 84 81 76 74 64 57 54 45 43 44 46 43 40 36 32 31 31 31 28 25 25 26 25 24 22 21
63 64 65 66 62 54 47 39 38 39 49 52 58 64 72 76 83 82 79 73 73 70 69 67 64 60 44 33 25 19 21 24 25 26 27 27 28 26 23 21 19 19 19 17
62 65 67 65 61 59 55 49 44 40 49 45 47 53 54 54 60 65 67 68 65 63 67 61 51 49 50 44 31 22 18 16 15 16 17 18 20 20 19 16 14 14 14 14

GFSCGP_prec_cthk_114.txt.gz
RH
35 34 36 42 44 45 43 43 50 71 70 75 83 86 78 76 83 86 88 87 70 51 61 55 57 55 55 53 49 54 65 73 74 69 68 67 68 67 64 60 54 49 46 48
30 31 29 38 41 43 43 43 67 73 76 77 82 90 90 90 82 84 88 88 73 60 66 63 54 54 52 51 47 48 59 68 72 66 68 68 65 61 61 60 55 53 47 47
27 25 26 30 37 39 41 41 56 68 73 78 79 88 94 94 90 88 89 90 87 70 60 57 52 50 50 49 46 43 48 63 72 70 70 68 63 58 58 60 58 53 48 44
23 23 22 25 30 34 37 39 43 57 61 69 72 80 82 90 95 90 89 93 86 74 64 80 54 46 46 46 45 43 45 50 63 75 72 68 60 57 56 58 60 57 50 44
22 20 22 22 19 24 34 42 40 48 59 65 64 67 68 79 86 84 81 83 88 79 61 62 50 51 49 46 41 43 45 47 54 68 75 73 72 71 64 52 47 48 53 49
22 20 21 19 19 18 39 51 55 59 63 66 60 63 71 77 75 80 82 82 87 70 62 63 53 61 56 53 47 43 42 43 48 55 71 75 68 66 59 48 43 45 51 50
22 20 20 20 21 23 37 52 69 74 79 71 67 73 64 72 69 72 78 77 84 77 68 67 63 67 57 54 51 44 43 41 43 50 56 70 73 67 60 56 52 42 45 49
30 24 21 20 21 22 31 42 60 65 73 63 71 70 63 70 71 72 73 83 82 84 71 66 62 54 62 57 54 46 45 43 42 48 54 62 68 68 67 61 55 48 43 41
35 29 26 25 23 23 32 41 46 54 55 68 75 70 71 72 72 73 73 74 79 82 77 72 70 60 59 59 53 49 49 50 45 46 55 65 71 74 71 64 56 51 48 47
35 33 30 31 29 28 29 29 37 44 55 55 79 74 70 72 74 80 78 79 76 77 83 77 70 70 63 65 59 52 55 54 50 48 51 68 70 68 73 75 72 57 54 51
39 38 34 34 35 34 32 33 38 44 45 57 69 67 67 70 76 81 85 81 76 77 81 84 82 86 81 77 76 54 49 57 55 46 49 56 72 71 84 82 81 72 71 61
39 41 43 38 38 36 38 37 38 43 44 57 60 63 68 69 76 80 86 79 76 76 75 80 82 88 82 86 80 58 62 54 63 54 47 54 54 66 73 77 78 77 81 78
39 42 45 45 43 39 41 41 39 42 49 58 51 56 69 73 76 80 83 84 82 78 71 65 72 81 88 85 86 68 70 73 64 64 43 48 51 55 59 65 67 62 68 75
38 43 43 56 50 47 43 40 40 42 51 58 54 64 71 74 75 80 82 83 81 80 76 75 76 82 96 95 93 90 79 78 74 84 53 44 44 48 53 57 57 55 53 55
38 42 43 48 53 51 52 43 41 37 42 47 52 55 58 69 70 72 76 77 79 74 72 76 77 76 90 99 94 96 96 93 89 94 79 44 44 47 51 53 52 53 53 56
44 50 49 51 55 54 50 51 48 50 51 54 52 51 51 67 75 74 74 73 74 74 73 77 84 83 82 88 92 92 98 96 90 94 88 69 62 67 66 64 57 57 57 57
46 53 56 57 58 56 55 48 48 56 58 57 60 53 52 57 67 70 73 76 76 74 76 80 85 84 91 93 98 95 97 90 79 74 71 77 75 79 80 83 75 71 65 65
54 53 56 59 62 69 58 51 53 67 66 63 61 62 63 64 66 68 72 73 80 83 80 79 84 88 85 84 88 90 98 93 88 85 78 73 65 66 80 92 87 84 83 69
57 57 57 57 59 54 53 54 55 60 66 70 67 65 66 71 73 71 77 78 82 84 83 80 82 86 87 87 86 85 92 93 87 86 78 70 67 63 68 71 84 84 84 78
46 52 53 57 48 46 44 55 55 51 55 57 62 67 68 68 74 72 76 81 84 82 83 81 82 82 82 84 84 85 83 81 77 72 73 68 64 64 63 62 64 67 73 68
35 36 40 50 43 41 38 39 47 56 53 61 66 70 71 70 71 71 75 75 79 81 85 80 82 78 76 76 74 71 70 68 64 61 58 57 56 55 54 53 59 65 63 65
35 39 40 42 37 39 37 33 35 44 60 60 67 70 75 71 73 75 79 74 75 78 78 76 76 72 71 68 64 61 57 55 52 49 49 48 49 49 48 47 46 45 43 45
54 47 46 44 40 39 45 44 44 43 55 64 67 65 73 75 78 81 80 77 75 73 71 69 67 66 63 60 56 53 51 48 45 43 42 41 40 37 35 33 33 32 32 33
60 57 57 56 53 51 41 42 47 47 48 57 67 73 75 82 84 85 88 82 79 78 72 65 61 60 60 61 60 56 52 50 48 45 41 38 36 35 32 31 29 27 26 26
59 58 63 60 53 50 49 43 35 41 51 55 63 71 75 85 87 90 91 89 88 82 75 69 67 65 61 55 43 37 35 35 37 36 34 33 31 31 31 30 28 27 26 25
60 64 61 62 59 58 56 53 48 39 40 43 50 60 68 73 76 77 79 80 79 79 80 77 74 69 61 53 48 41 34 27 22 19 19 22 23 24 25 26 25 25 24 24

GFSCGP_prec_cthk_117.txt.gz
RH
24 35 42 48 47 49 52 48 54 68 75 77 77 80 79 86 90 90 82 77 57 56 59 60 58 58 58 56 63 73 75 79 75 74 70 69 62 62 59 55 54 48 49 55
26 36 37 40 44 47 45 46 67 72 73 75 78 81 82 78 82 81 88 81 78 66 60 59 56 57 57 53 54 60 71 73 75 71 67 66 66 66 61 57 54 48 46 52
30 32 33 35 38 44 45 45 64 66 74 76 79 86 89 87 88 85 91 85 80 61 68 58 57 55 53 51 48 52 62 67 72 71 69 67 61 59 58 57 52 50 46 47
32 30 31 32 33 38 43 45 49 58 61 64 74 73 79 86 89 87 90 86 77 70 66 67 62 56 49 51 47 46 55 64 70 76 70 66 61 60 60 57 58 51 46 43
28 30 27 30 31 35 36 42 45 50 54 54 65 61 65 77 84 83 83 85 80 79 76 62 58 59 57 52 48 46 51 55 63 74 75 68 67 68 62 59 59 55 49 42
27 24 27 23 24 28 41 44 51 54 52 51 53 55 59 72 68 74 78 82 80 78 76 71 70 59 58 53 51 48 50 53 60 68 75 73 76 74 66 53 48 49 48 47
24 25 23 24 23 24 36 39 58 62 62 51 53 57 49 61 64 67 69 76 83 76 74 63 69 59 59 59 55 48 50 52 53 60 69 80 75 70 61 53 51 50 49 48
23 20 19 22 24 22 27 31 38 48 54 46 60 57 48 59 62 61 66 75 85 86 72 58 61 56 62 61 56 55 49 50 51 55 59 67 76 77 63 58 56 50 48 55
29 24 21 24 24 24 30 32 34 46 49 47 56 56 55 58 62 62 67 72 80 82 73 61 60 61 70 62 60 54 48 50 50 51 58 60 69 74 69 66 57 54 48 47
31 28 26 27 30 26 28 27 33 45 53 48 60 58 47 59 62 65 67 69 76 78 80 76 68 63 62 60 58 54 50 52 52 53 55 63 70 76 74 69 60 51 50 48
36 32 32 30 32 33 30 32 32 38 39 39 49 49 52 60 60 67 71 73 73 73 79 79 74 66 63 62 63 52 54 53 53 55 53 60 70 74 77 75 71 63 54 52
40 37 36 34 34 33 32 32 33 35 40 40 43 40 50 59 60 66 75 79 74 74 70 75 78 78 73 69 67 62 65 60 61 61 58 54 64 79 74 79 82 77 72 66
41 40 37 39 36 34 34 31 31 36 42 44 39 39 49 58 63 69 75 80 76 77 73 71 77 77 80 81 82 81 66 65 57 61 61 51 55 65 71 76 82 81 79 77
39 39 40 37 44 40 35 33 34 35 38 45 35 45 50 55 64 70 77 80 81 77 76 75 73 73 74 77 83 90 89 80 64 66 72 64 50 57 59 63 66 72 75 74
37 38 37 39 40 42 45 40 43 40 39 41 43 43 39 51 65 73 77 80 77 77 78 70 65 65 71 77 89 91 89 81 75 85 77 72 62 47 51 53 58 62 64 56
36 43 40 40 42 46 44 48 50 49 47 48 47 48 47 50 63 72 75 78 77 80 78 75 74 74 73 78 88 95 98 96 95 91 87 76 83 51 42 43 50 55 56 58
41 43 46 47 51 51 48 46 52 60 57 55 48 49 51 52 56 64 73 79 77 76 77 74 72 76 77 79 85 98 98 97 95 95 94 85 90 81 55 55 50 53 56 59
50 51 47 49 53 59 54 51 51 56 67 63 56 53 55 60 63 66 68 72 75 78 77 78 74 77 77 78 83 92 90 90 83 94 92 95 93 93 78 66 76 74 70 67
47 55 55 49 48 57 55 55 53 55 56 55 58 59 64 66 68 72 69 68 71 76 77 75 78 80 82 80 83 96 98 90 77 80 86 87 91 87 85 81 86 81 85 82
47 54 57 60 51 49 49 51 55 56 56 58 65 65 68 70 72 74 80 81 80 79 80 83 85 86 85 83 86 87 93 97 87 91 94 93 88 77 69 71 67 70 85 87
33 37 46 52 50 47 48 45 54 57 54 55 63 69 76 78 73 78 87 87 89 83 83 86 86 86 84 82 84 88 88 91 88 86 81 76 72 66 64 63 63 63 65 71
32 31 31 33 39 41 45 40 39 46 57 64 66 71 81 77 73 79 84 87 84 83 87 90 90 84 81 77 78 77 79 79 78 75 68 66 64 59 56 54 54 52 51 53
48 38 38 35 35 37 40 45 44 41 40 50 66 70 71 79 83 87 89 84 83 82 83 83 81 81 75 69 66 60 64 62 62 61 58 55 51 49 48 48 48 44 41 41
55 56 51 46 42 45 41 41 46 47 47 48 59 70 71 74 82 89 92 87 86 84 82 81 80 77 71 67 63 63 64 62 56 53 50 48 47 45 46 43 40 38 38 35
59 56 56 54 51 52 48 45 39 36 44 55 61 66 72 75 81 85 90 91 89 87 84 82 78 75 73 68 60 51 43 41 41 45 49 49 47 44 42 39 38 36 33 31
52 55 55 55 56 54 51 49 47 43 35 40 52 61 74 79 78 83 87 96 93 93 85 81 77 74 71 69 64 58 52 47 46 43 39 36 35 37 37 34 32 31 29 28